Regional Weather Roundup
Issued by NWS

Home | Current Version | Previous Version | Text Only | Print | Product List | Glossary On
Versions: 1 2 3 4 5 6 7 8 9 10 11 12 13 14 15 16 17 18 19 20 21 22 23 24 25 26 27 28 29 30 31 32 33 34 35 36 37 38 39 40 41 42 43 44 45 46 47 48 49 50
000
ASUS42 KTBW 181010
RWRFL
FLORIDA REGIONAL WEATHER ROUNDUP
NATIONAL WEATHER SERVICE TAMPA BAY RUSKIN FL
500 AM EST THU DEC 18 2014

NOTE: "FAIR" INDICATES FEW OR NO CLOUDS BELOW 12,000 FEET WITH NO
SIGNIFICANT WEATHER AND/OR OBSTRUCTIONS TO VISIBILITY.


FLZ001>010-012>015-112-114-115-181100-
PANHANDLE FLORIDA

CITY           SKY/WX    TMP DP  RH WIND       PRES   REMARKS
PENSACOLA      CLEAR     44  41  89 N7        30.16F WCI  40
PENSACOLA NAS  PTCLDY    43  41  93 CALM      30.17S
MILTON NAS     CLEAR     37  36  96 N3        30.18S
CRESTVIEW      CLEAR     35  34  96 CALM      30.19S
DUKE FIELD     FAIR      34  33  95 NW3       30.17F
VALPARAISO     PTCLDY    40  38  91 N7        30.17S WCI  36
MARY ESTHER    CLEAR     39  35  84 N7        30.16S WCI  34
TRI COUNTY     FAIR      40  39  97 CALM      30.18S
PANAMA CITY    FAIR      40  37  89 NW7       30.16S WCI  35
TYNDALL AFB    MOCLDY    44  40  86 N3        30.16F
APALACHICOLA   MOCLDY    46  41  82 CALM      30.16S

STATION/POSITION SKY/WX   TEMP    WIND        PRES    WAVE   SWELL
                          AIR SEA DIR/SP/G            HT/PER HT/PER
                          (F)     (DEG/KT/KT) (MB)    (FT/S) (FT/S)
30.1N   87.6W              57 65   40/  8/ 10 1020.9S   1
29.2N   88.2W              63 74   70/  4/  6 1020.5R   1/ 6
28.7N   86.0W              64 76  340/  6/  8 1021.2F   1/ 7
PANAMA CITY BEAC           46 61   30/  7/  8 1020.9F
CAPE SAN BLAS    NOT AVBL
TOWER C                    56     340/  8/  9 1021.1F
28.5N   84.5W              63 70  330/  6/  8 1020.7R   1/ 5   2/ 5

$$
FLZ011-016>038-118-127-128-134-139-239-181100-
NORTH FLORIDA

CITY           SKY/WX    TMP DP  RH WIND       PRES   REMARKS
MARIANNA       MOCLDY    40  40 100 CALM      30.16S
TALLAHASSEE    MOCLDY    42  37  82 CALM      30.14F
PERRY          CLOUDY    40  38  96 CALM      30.15S
CROSS CITY       N/A     39  36  89 CALM      30.13F
LAKE CITY      FAIR      39  39 100 CALM      30.13S
GAINESVILLE    CLOUDY    42  41  96 CALM      30.13F
MAYPORT NAS    MOCLDY    48  45  89 VRB3      30.12S
JACKSONVILLE   PTCLDY    39  39 100 CALM      30.12S
JAX NAS        MOCLDY    49  42  77 CALM      30.13S
JAX CRAIG      CLEAR     42  39  89 CALM      30.12S
JAX CECIL      PTCLDY    39  37  93 W3        30.13S
FERNANDINA BEA FAIR      48  45  87 CALM      30.11R
ST AUGUSTINE   MOCLDY    45  43  93 SW3       30.12F

STATION/POSITION SKY/WX   TEMP    WIND        PRES    WAVE   SWELL
                          AIR SEA DIR/SP/G            HT/PER HT/PER
                          (F)     (DEG/KT/KT) (MB)    (FT/S) (FT/S)
SHELL POINT                47     320/  5/  7   N/A
KEATON BEACH               49     320/  3/  4 1021.2R
CEDAR KEY                  52     360/  2/  3 1021.3F
FERNANDINA                 49 59  280/  4/  4 1019.4R
30.7N   81.3W                 60                N/A     1/11
MAYPORT                    51 62  300/  5/  6   N/A
31.4N   80.9W              54 57  330/ 10/ 10 1019.6R   1/11
ST AUGUSTINE               48     270/  6/  7 1020.2F

$$
FLZ040-043>046-052-053-057-058-063-144-181100-
INTERIOR CENTRAL FLORIDA

CITY           SKY/WX    TMP DP  RH WIND       PRES   REMARKS
OCALA          MOCLDY    39  36  87 CALM      30.13F
THE VILLAGES     N/A     43  43 100 CALM      30.04F
LEESBURG       PTCLDY    46  44  93 NW3       30.14F
SANFORD        CLEAR     45  42  89 NW6       30.12F WCI  42
ORLANDO EXEC   CLEAR     50  45  83 NW5       30.13F
ORLANDO INTL   PTCLDY    50  46  86 NW5       30.13F
WINTER HAVEN   CLEAR     50  47  89 NW3       30.14F
LAKELAND       CLEAR     43  41  93 CALM      30.15F
BARTOW         FAIR      43  43 100 CALM      30.14F
OKEECHOBEE     CLEAR     48  46  93 NW6       30.14R

$$
FLZ041-047-054-059-064-141-147-181100-
EAST CENTRAL FLORIDA

CITY           SKY/WX    TMP DP  RH WIND       PRES   REMARKS
DAYTONA BEACH  PTCLDY    47  45  93 CALM      30.13F
DELAND         MOSUNNY  N/A N/A N/A CALM      30.13F
JFK SPACE CTR  CLEAR     48  46  91 NW2       30.12S
CAPE CANAVERAL CLEAR     51  47  87 W7        30.12S
PATRICK AFB    CLEAR     54  48  79 NW12      30.13R
MELBOURNE      CLEAR     47  45  93 W7        30.12S WCI  44
VERO BEACH     PTCLDY    52  49  89 W6        30.12R
FT PIERCE      CLEAR     51  49  92 W6        30.12R
STUART         CLEAR     54  50  87 W5        30.12R

STATION/POSITION SKY/WX   TEMP    WIND        PRES    WAVE   SWELL
                          AIR SEA DIR/SP/G            HT/PER HT/PER
                          (F)     (DEG/KT/KT) (MB)    (FT/S) (FT/S)
28.5N   80.2W              65 75  290/ 12/ 14 1019.7R
28.9N   78.5W              71 76  280/ 12/ 14 1019.0F   2/11   2/11
TRIDENT PIER               54 65  310/  6/  9 1019.7R
28.4N   80.5W                 66                N/A     1/11
27.6N   80.2W                 76                N/A     2/11

$$
FLZ050-056-061-142-242-148-248-149-249-151-251-155-255-
160-260-181100-
WEST CENTRAL FLORIDA

CITY           SKY/WX    TMP DP  RH WIND       PRES   REMARKS
CRYSTAL RIVER  FAIR      37  36  93 CALM      30.14S
INVERNESS      FAIR      37  37 100 CALM      30.15S
BROOKSVILLE    FOG       39  38  96 CALM      30.15S VSB 1/4
ZEPHYRHILLS    FOG       39  37  93 CALM      30.14F VSB 3/4
CLEARWATER     PTCLDY    47  46  97 CALM      30.13F
TAMPA INTL     PTCLDY    51  47  86 CALM      30.14F
TAMPA EXEC       N/A     45  43  93 CALM      30.14F
PLANT CITY     CLEAR     46 N/A N/A CALM      30.15F
MACDILL AFB    PTCLDY    47  46  97 N2        30.13F
PETER O KNIGHT PTCLDY    52  50  93 CALM      30.13F
ST PETERSBURG  PTCLDY    57  52  83 CALM      30.12F
SARASOTA       CLEAR     46  46 100 SE3       30.12F
VENICE         FAIR      50  48  93 NE6       30.14F

STATION/POSITION SKY/WX   TEMP    WIND        PRES    WAVE   SWELL
                          AIR SEA DIR/SP/G            HT/PER HT/PER
                          (F)     (DEG/KT/KT) (MB)    (FT/S) (FT/S)
CEDAR KEY                  52     360/  2/  3 1021.3F
28.5N   84.5W              63 70  330/  6/  8 1020.7R   1/ 5   2/ 5
27.3N   84.3W                 76                N/A     2/ 5
CLEARWATER BEACH           60 63  320/  7/  8 1019.9F
MIDDLE TAMPA BAY           59      30/  4/  5 1020.4F
VENICE                     54 64   60/  8/  8 1020.2F

$$
FLZ066-069-070-075>078-162-262-165-265-181100-
SOUTHWEST FLORIDA AND KEYS

CITY           SKY/WX    TMP DP  RH WIND       PRES   REMARKS
PUNTA GORDA    CLEAR     46  46 100 NE3       30.16S FOG
FT MYERS       CLEAR     54  51  90 N5        30.13S
SOUTHWEST INTL CLEAR     54  52  93 CALM      30.13S
NAPLES         CLEAR     59  59 100 CALM      30.13R
MARCO ISLAND   PTSUNNY   55  54  94 CALM      30.13R
MARATHON       CLEAR     65  58  78 NE6       30.12F
KEY WEST NAS   CLEAR     65  59  81 NE3       30.12F
KEY WEST INTL  CLEAR     65  60  84 NE5       30.12F

STATION/POSITION SKY/WX   TEMP    WIND        PRES    WAVE   SWELL
                          AIR SEA DIR/SP/G            HT/PER HT/PER
                          (F)     (DEG/KT/KT) (MB)    (FT/S) (FT/S)
VENICE                     54 64   60/  8/  8 1020.2F
NAPLES                     61 72   CALM  /  2 1020.7R
26.0N   85.6W              71 76   90/  4/  6 1019.7F   2/ 8   2/ 8
DRY TORTUGAS               70      50/  6/  6 1019.9F
NW FL BAY                  65      20/  7/  8 1020.9R
SAND KEY                   70      40/ 13/ 15 1019.7F
SOMBRERO KEY               69      30/ 11/ 12 1020.3F
LONG KEY                   67 68   10/ 11/ 11 1021.2F
MOLASSES REEF              69 77  360/  9/ 10 1019.7F

$$
FLZ067-068-071>074-168-172>174-181100-
SOUTHEAST FLORIDA

CITY           SKY/WX    TMP DP  RH WIND       PRES   REMARKS
W PALM BEACH   PTCLDY    60  58  92 SW3       30.10F
FT LAUDER-EXEC CLEAR     61  57  87 SW5       30.11F
FT LAUDERDALE  PTCLDY    63  58  83 W5        30.11F
POMPANO BEACH  CLEAR     61  56  83 SW3       30.11F
PEMBROKE PINES CLEAR     60  56  86 CALM      30.13F
OPA LOCKA      CLEAR     59  56  89 W3        30.12F
MIAMI          CLEAR     61  54  77 CALM      30.12F
WEST KENDALL   CLEAR     56  54  93 CALM      30.12F
HOMESTEAD      CLEAR     59  55  85 N1        30.12F

STATION/POSITION SKY/WX   TEMP    WIND        PRES    WAVE   SWELL
                          AIR SEA DIR/SP/G            HT/PER HT/PER
                          (F)     (DEG/KT/KT) (MB)    (FT/S) (FT/S)
PORT EVERGLADES            64     270/  6/  8 1019.5
VIRGINIA KEY               67 71  310/  2/  3 1020.2F
LAKE WORTH                 63 76  240/  5/  7 1019.0S
SETTLEMENT POINT           73     200/ 15/ 17 1019.6F

$$




USA.gov is the U.S. government's official web portal to all federal, state and local government web resources and services.